Location: ????? ????
(37.9717°N, 23.4051°E)
Time: 12:25:07
(UTC+00:00)

ADEOS - Pass Details

Date: 18 April 2024
Orbit: 790 x 793 km, 98.9° (Epoch: 19 May)

Event Time Altitude Azimuth Distance (km) Brightness Sun altitude
Rises 17:39:42 0° 176° (S) 3,277 6.5 -7.3°
Reaches altitude 10° 17:42:03 10° 180° (S) 2,352 5.8 -7.7°
Maximum altitude 17:47:09 57° 259° (WSW) 931 4.3 -8.6°
Drops below altitude 10° 17:52:18 10° 338° (NNW) 2,368 6.7 -9.6°
Sets 17:54:41 0° 342° (NNW) 3,301 7.4 -10.0°
